[[{"header":{"parameterUnit":"m.s-1","parameterCategory":2,"la1":30.2991,"la2":30.254,"lo1":-89.0895,"lo2":-89.0444,"dy":0.0017,"dx":0.0017,"nx":28,"ny":28,"refTime":"2024-10-08T21:00:00:Z","depth":"0","parameterNumber":2,"parameterNumberName":"U-component_of_CURRENTS"},"data":[0,0,0,0,0,0,0,0,0,0,0,0,0,0,0,0,0,0,0,0,0,0,0,0,0,0,0,0,0,0,0,0,0,0,0,0,0,0,0,0,0,0,0,0,0,0,0,0,0,0,0,0,0,0,0,0,0,0,-0.2334,-0.2335,0,-0.2346,-0.2346,-0.2346,-0.231,-0.231,-0.2309,-0.2308,-0.2267,-0.2267,-0.2267,0,0,0,0,0,0,0,0,0,0,0,0,0,-0.228,-0.2281,-0.2334,-0.2335,-0.2335,-0.2346,-0.2346,-0.2346,-0.2311,-0.2309,-0.2308,-0.2307,-0.2267,-0.2267,-0.2267,0,0,0,0,0,0,0,0,0,0,0,0,0,-0.2297,-0.2281,-0.2334,-0.232,-0.2319,-0.2346,-0.2346,-0.2346,-0.2311,-0.2309,-0.2308,-0.2307,-0.2268,-0.2267,-0.2267,-0.2292,0,0,-0.2266,-0.2266,0,0,0,0,0,0,0,0,-0.2296,-0.2298,-0.2322,-0.2321,-0.232,-0.2327,-0.2312,-0.2326,-0.2311,-0.2312,-0.2308,-0.2306,-0.2285,-0.2283,-0.2286,-0.229,-0.2288,-0.2266,-0.2266,-0.2265,-0.2265,0,0,0,0,0,0,0,-0.2295,-0.2298,-0.2337,-0.2323,-0.2322,-0.2313,-0.2314,-0.2315,-0.2303,-0.2312,-0.231,-0.2315,-0.2284,-0.2287,-0.2285,-0.2288,-0.2266,-0.2265,-0.2265,-0.2265,-0.2307,-0.2308,0,0,0,0,0,0,-0.2299,-0.2297,-0.2337,-0.2338,-0.2307,-0.2315,-0.2316,-0.2325,-0.2304,-0.2301,-0.2316,-0.2313,-0.2288,-0.2285,-0.2283,-0.2306,-0.2265,-0.2265,-0.2265,-0.2305,-0.2307,-0.2308,0,0,0,0,0,0,-0.2298,-0.2303,-0.2336,-0.2319,-0.2323,-0.2318,-0.2328,-0.2326,-0.2323,-0.2309,-0.2303,-0.2315,-0.2287,-0.2284,-0.2287,-0.2304,-0.2265,-0.2265,-0.2304,-0.2306,-0.2308,-0.2355,0,0,0,0,0,0,-0.2297,-0.2303,-0.2307,-0.2319,-0.2324,-0.2356,-0.2329,-0.2327,-0.233,-0.2326,-0.2307,-0.2302,-0.2285,-0.2287,-0.2286,-0.2303,-0.2264,-0.2302,-0.2305,-0.2307,-0.2352,-0.2358,-0.2364,0,0,0,0,0,-0.2295,-0.2309,-0.2308,-0.2312,-0.2332,-0.2357,-0.2359,-0.2349,-0.2331,-0.2339,-0.2325,-0.2302,-0.2302,-0.2288,-0.2287,-0.2304,-0.2301,-0.2304,-0.2307,-0.2349,-0.2357,-0.2364,0,0,0,0,0,0,-0.2287,-0.2308,-0.2306,-0.2325,-0.2342,-0.2352,-0.2357,-0.2353,-0.2349,-0.234,-0.2318,-0.2314,-0.2324,-0.2312,-0.2297,-0.2325,-0.2299,-0.2301,-0.2331,-0.2339,-0.2345,-0.2344,-0.2264,0,0,0,0,0,-0.229,-0.2302,-0.2325,-0.2338,-0.2348,-0.2353,-0.236,-0.2358,-0.236,-0.2356,-0.2344,-0.2335,-0.2339,-0.2335,-0.2335,-0.235,-0.2335,-0.2361,-0.2367,-0.2372,-0.2372,-0.2368,-0.2373,-0.2318,-0.2318,-0.2318,0,0,-0.2288,-0.2302,-0.2307,-0.2336,-0.2344,-0.237,-0.2353,-0.2369,-0.2386,-0.2353,-0.2364,-0.2356,-0.2348,-0.2364,-0.2368,-0.2353,-0.2384,-0.2376,-0.238,-0.2377,-0.2371,-0.2376,-0.2381,-0.232,-0.232,-0.2319,0,0,-0.2297,-0.2307,-0.2323,-0.2345,-0.2367,-0.2378,-0.2385,-0.2401,-0.2402,-0.242,-0.2401,-0.2405,-0.2407,-0.2407,-0.2407,-0.2449,-0.2417,-0.2449,-0.2476,-0.2472,-0.2476,-0.2479,-0.2477,-0.2479,-0.245,-0.245,-0.245,0,-0.2292,-0.2317,-0.2332,-0.236,-0.2376,-0.2385,-0.2411,-0.2425,-0.2438,-0.2442,-0.2428,-0.2438,-0.243,-0.2451,-0.2465,-0.2463,-0.2451,-0.2446,-0.2478,-0.2481,-0.2484,-0.248,-0.2483,-0.2453,-0.2453,-0.2452,-0.2452,0,-0.2317,-0.234,-0.2353,-0.2389,-0.2414,-0.2436,-0.2466,-0.2482,-0.2482,-0.2491,-0.2508,-0.2501,-0.2502,-0.2509,-0.2498,-0.2519,-0.2503,-0.2487,-0.2456,-0.2492,-0.2486,-0.2488,-0.2457,-0.2456,-0.2455,-0.2454,0,0,-0.2291,-0.2356,-0.2358,-0.2379,-0.2429,-0.2449,-0.249,-0.2524,-0.254,-0.2552,-0.2568,-0.2582,-0.2567,-0.2567,-0.2556,-0.2556,-0.257,-0.2529,-0.2528,-0.2521,-0.2559,-0.2514,-0.2511,-0.2553,-0.2553,-0.2554,-0.2551,0,-0.2298,-0.2349,-0.2384,-0.2428,-0.2454,-0.2489,-0.2526,-0.2559,-0.2577,-0.2598,-0.26,-0.261,-0.2594,-0.259,-0.2591,-0.2574,-0.2574,-0.2572,-0.253,-0.2529,-0.248,-0.2512,-0.2426,-0.2413,-0.2552,-0.2552,-0.2552,0,-0.2303,-0.2336,-0.238,-0.2442,-0.2457,-0.2487,-0.2536,-0.2573,-0.2616,-0.2629,-0.2643,-0.2642,-0.2654,-0.2628,-0.2619,-0.2614,-0.2591,-0.2577,-0.2576,-0.2515,-0.2487,-0.2398,-0.241,-0.2396,-0.2554,-0.2554,-0.2554,0,-0.2259,-0.233,-0.2359,-0.2381,-0.2457,-0.2478,-0.2516,-0.257,-0.2599,-0.2641,-0.2657,-0.2671,-0.2672,-0.2653,-0.2627,-0.2619,-0.2609,-0.2593,-0.2535,-0.2532,-0.2441,-0.2429,-0.2425,-0.2584,-0.2584,-0.2584,-0.2584,0,-0.2245,-0.2265,-0.2338,-0.2351,-0.2384,-0.245,-0.2486,-0.2529,-0.2589,-0.2616,-0.2658,-0.2672,-0.2675,-0.2671,-0.2641,-0.2593,-0.2619,-0.2544,-0.2528,-0.2457,-0.2447,-0.2415,-0.242,-0.2584,-0.2584,-0.2584,-0.2584,0,-0.2182,-0.2235,-0.2266,-0.234,-0.2361,-0.2379,-0.246,-0.2484,-0.2557,-0.2594,-0.2607,-0.267,-0.2668,-0.2668,-0.2644,-0.2604,-0.2519,-0.2543,-0.2462,-0.2436,-0.2357,-0.2369,-0.2304,-0.2241,-0.2477,-0.2475,-0.2474,0,-0.2152,-0.2161,-0.2231,-0.2242,-0.2269,-0.2314,-0.2342,-0.244,-0.2474,-0.2579,-0.2585,-0.2627,-0.2635,-0.2608,-0.2559,-0.2512,-0.2476,-0.2391,-0.236,-0.2346,-0.2348,-0.2325,-0.2275,-0.2265,-0.2263,-0.226,-0.2259,0,-0.2076,-0.2098,-0.212,-0.2148,-0.2175,-0.2214,-0.2268,-0.2298,-0.2409,-0.2457,-0.2513,-0.2539,-0.2556,-0.249,-0.2448,-0.2393,-0.2324,-0.2345,-0.2347,-0.2197,-0.2155,-0.2088,-0.2286,-0.224,-0.2242,-0.2243,-0.2244,-0.2245,-0.1997,-0.1992,-0.2018,-0.203,-0.2062,-0.2082,-0.2076,-0.2158,-0.2202,-0.2262,-0.2371,-0.2404,-0.2403,-0.2343,-0.2296,-0.2188,-0.2204,-0.211,-0.213,-0.2114,-0.2031,-0.2192,-0.2118,-0.2119,-0.212,-0.2121,-0.2122,0,-0.1886,-0.189,-0.1897,-0.1907,-0.1886,-0.1949,-0.1991,-0.1969,-0.1977,-0.2106,-0.2153,-0.2233,-0.2165,-0.217,-0.2092,-0.2003,-0.1933,-0.1943,-0.1898,-0.1861,-0.2014,-0.1983,-0.1855,-0.1855,-0.1855,-0.1855,-0.1855,-0.1855,-0.1828,-0.1788,-0.1791,-0.1715,-0.172,-0.1656,-0.165,-0.165,-0.1709,-0.1784,-0.1904,-0.2043,-0.2061,-0.2131,-0.201,-0.1912,-0.1839,-0.177,-0.1786,-0.192,-0.1938,-0.1954,-0.1927,-0.179,-0.179,-0.156,-0.1558,-0.1557]},{"header":{"parameterUnit":"m.s-1","parameterCategory":2,"la1":30.2991,"la2":30.254,"lo1":-89.0895,"lo2":-89.0444,"dy":0.0017,"dx":0.0017,"nx":28,"ny":28,"refTime":"2024-10-08T21:00:00:Z","depth":"0","parameterNumber":3,"parameterNumberName":"V-component_of_CURRENTS"},"data":[0,0,0,0,0,0,0,0,0,0,0,0,0,0,0,0,0,0,0,0,0,0,0,0,0,0,0,0,0,0,0,0,0,0,0,0,0,0,0,0,0,0,0,0,0,0,0,0,0,0,0,0,0,0,0,0,0,0,-0.0367,-0.0366,0,-0.0294,-0.0293,-0.0292,-0.0242,-0.0242,-0.0241,-0.0241,-0.0147,-0.0145,-0.0142,0,0,0,0,0,0,0,0,0,0,0,0,0,-0.042,-0.0419,-0.0367,-0.0366,-0.0365,-0.0294,-0.0293,-0.0292,-0.0242,-0.0242,-0.0241,-0.0241,-0.0147,-0.0145,-0.0142,0,0,0,0,0,0,0,0,0,0,0,0,0,-0.0376,-0.0419,-0.0367,-0.0333,-0.0329,-0.0294,-0.0293,-0.0291,-0.0242,-0.0242,-0.0241,-0.0241,-0.0148,-0.0145,-0.0142,-0.0129,0,0,-0.0131,-0.013,0,0,0,0,0,0,0,0,-0.0379,-0.0374,-0.0339,-0.0335,-0.0331,-0.0277,-0.0277,-0.0236,-0.0242,-0.0274,-0.0241,-0.0241,-0.0189,-0.0183,-0.0169,-0.0125,-0.0121,-0.0131,-0.0129,-0.0128,-0.0127,0,0,0,0,0,0,0,-0.0382,-0.0377,-0.0337,-0.0338,-0.0333,-0.0306,-0.0299,-0.0269,-0.0234,-0.0271,-0.0268,-0.0261,-0.0187,-0.0172,-0.0166,-0.0119,-0.0131,-0.0128,-0.0126,-0.0125,-0.0053,-0.0053,0,0,0,0,0,0,-0.0395,-0.038,-0.0339,-0.0335,-0.0355,-0.0305,-0.0298,-0.0294,-0.0235,-0.0226,-0.0262,-0.0259,-0.0178,-0.017,-0.0163,-0.0145,-0.0128,-0.0124,-0.0123,-0.0053,-0.0053,-0.0053,0,0,0,0,0,0,-0.0397,-0.0393,-0.0342,-0.0356,-0.0348,-0.0305,-0.0301,-0.0293,-0.0278,-0.0228,-0.0218,-0.0255,-0.0178,-0.0167,-0.0136,-0.0141,-0.0123,-0.012,-0.0053,-0.0053,-0.0053,-0.0109,0,0,0,0,0,0,-0.0399,-0.0394,-0.0397,-0.0357,-0.0348,-0.0328,-0.0301,-0.0292,-0.0275,-0.0271,-0.0219,-0.021,-0.0176,-0.0141,-0.0133,-0.0136,-0.0117,-0.0053,-0.0053,-0.0053,-0.0107,-0.0111,-0.0114,0,0,0,0,0,-0.0401,-0.0409,-0.0398,-0.0393,-0.0353,-0.0329,-0.0321,-0.0289,-0.0276,-0.0273,-0.0236,-0.0211,-0.0137,-0.0139,-0.0129,-0.0131,-0.0053,-0.0053,-0.0053,-0.0105,-0.011,-0.0114,0,0,0,0,0,0,-0.0433,-0.0404,-0.039,-0.0389,-0.0364,-0.0321,-0.0316,-0.0294,-0.0263,-0.0259,-0.0211,-0.0199,-0.0174,-0.0145,-0.0149,-0.0111,-0.0092,-0.009,-0.0134,-0.0139,-0.0142,-0.0152,-0.0114,0,0,0,0,0,-0.0443,-0.0442,-0.0407,-0.0407,-0.0397,-0.0358,-0.0345,-0.0323,-0.029,-0.0275,-0.0238,-0.02,-0.0167,-0.0148,-0.0116,-0.0094,-0.0061,-0.0089,-0.0093,-0.0097,-0.0097,-0.0052,-0.0052,-0.0054,-0.0054,-0.0054,0,0,-0.0456,-0.044,-0.0439,-0.0414,-0.0392,-0.0386,-0.0349,-0.0334,-0.0326,-0.0271,-0.025,-0.0212,-0.0165,-0.0141,-0.0127,-0.0117,-0.0078,-0.0097,-0.01,-0.0099,-0.0053,-0.0052,-0.0052,-0.0055,-0.0054,-0.0054,0,0,-0.0486,-0.0467,-0.0479,-0.0461,-0.0435,-0.0409,-0.0409,-0.0369,-0.0348,-0.0323,-0.0282,-0.0248,-0.02,-0.0164,-0.0141,-0.0146,-0.0102,-0.0137,-0.0161,-0.0117,-0.0117,-0.0116,-0.0076,-0.0071,-0.0137,-0.0137,-0.0138,0,-0.0504,-0.0512,-0.0478,-0.0483,-0.0474,-0.0425,-0.0434,-0.0405,-0.036,-0.0342,-0.0326,-0.0248,-0.0211,-0.0173,-0.0174,-0.0155,-0.0123,-0.0149,-0.0123,-0.0121,-0.0119,-0.0078,-0.0072,-0.014,-0.014,-0.014,-0.0139,0,-0.0541,-0.0546,-0.0551,-0.0542,-0.0527,-0.0526,-0.0483,-0.0464,-0.0432,-0.0398,-0.0355,-0.0297,-0.025,-0.0233,-0.0204,-0.0172,-0.0152,-0.0135,-0.0114,-0.0122,-0.0078,-0.0071,-0.0144,-0.0143,-0.0142,-0.0142,0,0,-0.0582,-0.058,-0.0581,-0.0592,-0.0559,-0.0553,-0.0535,-0.0503,-0.0491,-0.0437,-0.0413,-0.0351,-0.0313,-0.0283,-0.0237,-0.0196,-0.0157,-0.0164,-0.016,-0.0129,-0.006,-0.0015,-0.0002,-0.0135,-0.0134,-0.0133,-0.0036,0,-0.0622,-0.0656,-0.0635,-0.0659,-0.0672,-0.0623,-0.061,-0.0572,-0.0527,-0.0489,-0.0416,-0.0376,-0.0333,-0.031,-0.0262,-0.0179,-0.0139,-0.0185,-0.0052,-0.0048,-0.001,0.0008,0.0035,0.0127,-0.0028,-0.0027,-0.0026,0,-0.0664,-0.0682,-0.0719,-0.0723,-0.0722,-0.0723,-0.0692,-0.0674,-0.0601,-0.0564,-0.0502,-0.0439,-0.0363,-0.0331,-0.0195,-0.0225,-0.0152,-0.0088,-0.0083,-0.0015,0.0012,0.0112,0.0147,0.0284,-0.0014,-0.0015,-0.0016,0,-0.0717,-0.0739,-0.0774,-0.0775,-0.0767,-0.0769,-0.0757,-0.0699,-0.0684,-0.0608,-0.0582,-0.048,-0.0426,-0.0318,-0.0179,-0.0187,-0.0027,-0.0022,0.0087,0.0091,0.0154,0.0162,0.0334,0.0064,0.0064,0.0063,0.0063,0,-0.0769,-0.0795,-0.0804,-0.0824,-0.0859,-0.0826,-0.084,-0.0805,-0.0752,-0.0733,-0.0628,-0.0585,-0.042,-0.0304,-0.0187,-0.0016,-0.003,0.0092,0.0124,0.0136,0.0141,0.0294,0.0341,0.0067,0.0066,0.0066,0.0065,0,-0.0821,-0.0826,-0.0871,-0.0883,-0.0889,-0.0912,-0.0908,-0.091,-0.0847,-0.0815,-0.0793,-0.0655,-0.0493,-0.032,-0.0132,-0.0024,0.0217,0.0187,0.0192,0.0223,0.0446,0.0487,0.0682,0.0744,0.0323,0.0325,0.0327,0,-0.0851,-0.0881,-0.0925,-0.0957,-0.0968,-0.0994,-0.1009,-0.0966,-0.0961,-0.0857,-0.0846,-0.0681,-0.0554,-0.0248,-0.0021,0.0211,0.03,0.0359,0.0349,0.0477,0.0546,0.0573,0.0611,0.0411,0.0413,0.0415,0.0416,0,-0.0906,-0.0922,-0.096,-0.1032,-0.1067,-0.1104,-0.1117,-0.1128,-0.1061,-0.1011,-0.0913,-0.0799,-0.048,-0.0191,0.0125,0.0261,0.0462,0.04,0.0538,0.0639,0.0675,0.0742,0.0323,0.0431,0.0429,0.0428,0.0428,0.0427,-0.094,-0.0985,-0.1038,-0.1102,-0.115,-0.1198,-0.1224,-0.1215,-0.1195,-0.11,-0.098,-0.0778,-0.0342,0.0117,0.028,0.0643,0.06,0.0742,0.0784,0.0802,0.0861,0.0475,0.0613,0.0613,0.0612,0.0612,0.0612,0,-0.0979,-0.1031,-0.1103,-0.1179,-0.1242,-0.1246,-0.1282,-0.1287,-0.1262,-0.113,-0.1002,-0.0528,-0.0096,0.0306,0.0826,0.1017,0.1041,0.1109,0.1157,0.1178,0.0854,0.0858,0.1049,0.1048,0.1048,0.1048,0.1048,0.1048,-0.1001,-0.1079,-0.1121,-0.1234,-0.1287,-0.1347,-0.1366,-0.1349,-0.127,-0.1054,-0.079,-0.0578,0.0038,0.0878,0.1351,0.1388,0.1519,0.1517,0.1583,0.1366,0.1335,0.1305,0.1323,0.1607,0.1608,0.189,0.1893,0.1895]}],[{"header":{"parameterUnit":"m.s-1","parameterCategory":2,"la1":30.2991,"la2":30.254,"lo1":-89.0895,"lo2":-89.0444,"dy":0.0017,"dx":0.0017,"nx":28,"ny":28,"refTime":"2024-10-08T21:00:00:Z","depth":"2","parameterNumber":2,"parameterNumberName":"U-component_of_CURRENTS"},"data":[0,0,0,0,0,0,0,0,0,0,0,0,0,0,0,0,0,0,0,0,0,0,0,0,0,0,0,0,0,0,0,0,0,0,0,0,0,0,0,0,0,0,0,0,0,0,0,0,0,0,0,0,0,0,0,0,0,0,-0.2216,-0.2217,0,-0.223,-0.223,-0.223,-0.2201,-0.22,-0.2199,-0.2199,-0.2166,-0.2166,-0.2166,0,0,0,0,0,0,0,0,0,0,0,0,0,-0.2163,-0.2164,-0.2216,-0.2217,-0.2217,-0.223,-0.223,-0.223,-0.2201,-0.22,-0.2199,-0.2198,-0.2166,-0.2166,-0.2166,0,0,0,0,0,0,0,0,0,0,0,0,0,-0.218,-0.2164,-0.2216,-0.2206,-0.2205,-0.223,-0.223,-0.223,-0.2201,-0.22,-0.2199,-0.2198,-0.2166,-0.2166,-0.2166,-0.2187,0,0,-0.2165,-0.2165,0,0,0,0,0,0,0,0,-0.2179,-0.2182,-0.2207,-0.2206,-0.2206,-0.2214,-0.22,-0.2214,-0.2201,-0.22,-0.2199,-0.2197,-0.218,-0.2179,-0.2182,-0.2186,-0.2184,-0.2165,-0.2165,-0.2165,-0.2165,0,0,0,0,0,0,0,-0.2178,-0.2181,-0.222,-0.2207,-0.2207,-0.22,-0.2201,-0.2202,-0.2194,-0.22,-0.2199,-0.2204,-0.2179,-0.2182,-0.2181,-0.2184,-0.2165,-0.2165,-0.2165,-0.2165,-0.2208,-0.2209,0,0,0,0,0,0,-0.2183,-0.218,-0.2219,-0.222,-0.2192,-0.2202,-0.2203,-0.2211,-0.2195,-0.2192,-0.2205,-0.2203,-0.2183,-0.2181,-0.2179,-0.2205,-0.2165,-0.2165,-0.2165,-0.2206,-0.2208,-0.2209,0,0,0,0,0,0,-0.2181,-0.2186,-0.2219,-0.2202,-0.2206,-0.2204,-0.2213,-0.2212,-0.2212,-0.2199,-0.2195,-0.2207,-0.2182,-0.218,-0.2185,-0.2203,-0.2165,-0.2164,-0.2205,-0.2207,-0.2209,-0.2255,0,0,0,0,0,0,-0.218,-0.2186,-0.2191,-0.2202,-0.2207,-0.2238,-0.2215,-0.2213,-0.2219,-0.2216,-0.22,-0.2196,-0.2181,-0.2186,-0.2185,-0.2202,-0.2164,-0.2203,-0.2206,-0.2208,-0.2252,-0.2259,-0.2264,0,0,0,0,0,-0.2178,-0.2192,-0.2191,-0.2196,-0.2215,-0.2239,-0.2241,-0.2234,-0.222,-0.2228,-0.2217,-0.2196,-0.22,-0.2187,-0.2185,-0.2203,-0.2202,-0.2205,-0.2208,-0.225,-0.2257,-0.2264,0,0,0,0,0,0,-0.2171,-0.2191,-0.219,-0.2209,-0.2225,-0.2235,-0.2241,-0.2239,-0.2238,-0.2231,-0.2212,-0.2208,-0.2221,-0.221,-0.2195,-0.2224,-0.2199,-0.2202,-0.2231,-0.2238,-0.2244,-0.2244,-0.2164,0,0,0,0,0,-0.2174,-0.2186,-0.2208,-0.222,-0.2231,-0.2237,-0.2244,-0.2244,-0.2247,-0.2245,-0.2236,-0.223,-0.2235,-0.2233,-0.2234,-0.2249,-0.2235,-0.2261,-0.2267,-0.2272,-0.2273,-0.2269,-0.2274,-0.2219,-0.2219,-0.2219,0,0,-0.2173,-0.2186,-0.2192,-0.2219,-0.2228,-0.2253,-0.2238,-0.2255,-0.2272,-0.2243,-0.2256,-0.2251,-0.2244,-0.2262,-0.2266,-0.2252,-0.2284,-0.2276,-0.228,-0.2278,-0.2272,-0.2277,-0.2282,-0.2221,-0.222,-0.222,0,0,-0.2182,-0.2192,-0.2207,-0.2228,-0.2251,-0.2262,-0.227,-0.2287,-0.2289,-0.2309,-0.2293,-0.2299,-0.2304,-0.2304,-0.2304,-0.2346,-0.2317,-0.2348,-0.2374,-0.2371,-0.2375,-0.2378,-0.2376,-0.2379,-0.2349,-0.2349,-0.2349,0,-0.2178,-0.2202,-0.2216,-0.2242,-0.2259,-0.2269,-0.2294,-0.2309,-0.2324,-0.233,-0.2318,-0.2332,-0.2326,-0.2347,-0.2361,-0.2359,-0.2349,-0.2346,-0.2377,-0.238,-0.2383,-0.2379,-0.2382,-0.2351,-0.2351,-0.2351,-0.2351,0,-0.2201,-0.2224,-0.2237,-0.2272,-0.2296,-0.2317,-0.2347,-0.2365,-0.2368,-0.2378,-0.2398,-0.2393,-0.2397,-0.2404,-0.2394,-0.2416,-0.2401,-0.2385,-0.2356,-0.2391,-0.2386,-0.2387,-0.2355,-0.2354,-0.2353,-0.2353,0,0,-0.2178,-0.2239,-0.2242,-0.2262,-0.2311,-0.233,-0.2371,-0.2405,-0.2423,-0.2438,-0.2456,-0.2471,-0.246,-0.2461,-0.2452,-0.2452,-0.2468,-0.2428,-0.2427,-0.242,-0.2459,-0.2412,-0.2409,-0.2452,-0.2452,-0.2453,-0.245,0,-0.2185,-0.2233,-0.2266,-0.2309,-0.2334,-0.2369,-0.2406,-0.2439,-0.2459,-0.2482,-0.2486,-0.2499,-0.2485,-0.2485,-0.2487,-0.2471,-0.2473,-0.247,-0.2431,-0.243,-0.2378,-0.2409,-0.2214,-0.2192,-0.2452,-0.2452,-0.2452,0,-0.219,-0.2221,-0.2264,-0.2323,-0.2338,-0.2368,-0.2418,-0.2454,-0.2498,-0.2513,-0.253,-0.2531,-0.2545,-0.2522,-0.2516,-0.2512,-0.2491,-0.2477,-0.2476,-0.2414,-0.2385,-0.2197,-0.2184,-0.2454,-0.2454,-0.2454,-0.2454,0,-0.2149,-0.2217,-0.2245,-0.2266,-0.2339,-0.2362,-0.2399,-0.2453,-0.2482,-0.2527,-0.2544,-0.2561,-0.2564,-0.2548,-0.2525,-0.2518,-0.251,-0.2494,-0.2435,-0.2431,-0.2248,-0.2227,-0.2486,-0.2486,-0.2486,-0.2486,-0.2486,0,-0.2136,-0.2156,-0.2226,-0.2239,-0.2272,-0.2337,-0.2374,-0.2416,-0.2476,-0.2503,-0.2547,-0.2561,-0.2568,-0.2565,-0.2539,-0.2492,-0.2519,-0.2443,-0.2428,-0.2261,-0.2243,-0.2453,-0.2449,-0.2486,-0.2486,-0.2486,-0.2486,0,-0.2077,-0.2128,-0.2159,-0.223,-0.2251,-0.2271,-0.235,-0.2374,-0.2446,-0.2483,-0.2497,-0.2559,-0.2559,-0.2562,-0.254,-0.2501,-0.2467,-0.2442,-0.2251,-0.2213,-0.2388,-0.2387,-0.2377,-0.2375,-0.2374,-0.2373,-0.2372,0,-0.2049,-0.2058,-0.2126,-0.2138,-0.2165,-0.2211,-0.2238,-0.2334,-0.2365,-0.2467,-0.2473,-0.2516,-0.2519,-0.2494,-0.2433,-0.2385,-0.2434,-0.2173,-0.2127,-0.2392,-0.2377,-0.2379,-0.2379,-0.1904,-0.19,-0.1896,-0.1893,0,-0.1977,-0.2001,-0.2022,-0.2049,-0.2076,-0.2113,-0.2165,-0.2192,-0.23,-0.2344,-0.2394,-0.2416,-0.2419,-0.2288,-0.2243,-0.2179,-0.2168,-0.2094,-0.2402,-0.1974,-0.1949,-0.1935,-0.195,-0.1858,-0.1862,-0.1864,-0.1866,-0.1867,-0.1904,-0.19,-0.1925,-0.1937,-0.1968,-0.1985,-0.1977,-0.205,-0.2088,-0.2126,-0.2233,-0.2205,-0.2189,-0.2035,-0.1934,-0.185,-0.2001,-0.1882,-0.1892,-0.1907,-0.1864,-0.1839,-0.172,-0.1722,-0.1725,-0.1727,-0.1728,0,-0.1799,-0.1803,-0.181,-0.1819,-0.1797,-0.1859,-0.1895,-0.186,-0.1857,-0.1934,-0.1959,-0.1776,-0.1707,-0.1699,-0.1533,-0.1504,-0.1468,-0.1418,-0.1362,-0.1397,-0.1428,-0.136,-0.1082,-0.108,-0.1079,-0.1077,0,0,-0.1743,-0.1704,-0.1706,-0.1631,-0.1636,-0.157,-0.1562,-0.1538,-0.1553,-0.1514,-0.151,-0.1642,-0.1675,-0.1388,-0.1309,-0.1177,-0.1272,-0.1111,-0.163,-0.16,-0.1629,-0.1696,-0.163,0,0,0,0,0]},{"header":{"parameterUnit":"m.s-1","parameterCategory":2,"la1":30.2991,"la2":30.254,"lo1":-89.0895,"lo2":-89.0444,"dy":0.0017,"dx":0.0017,"nx":28,"ny":28,"refTime":"2024-10-08T21:00:00:Z","depth":"2","parameterNumber":3,"parameterNumberName":"V-component_of_CURRENTS"},"data":[0,0,0,0,0,0,0,0,0,0,0,0,0,0,0,0,0,0,0,0,0,0,0,0,0,0,0,0,0,0,0,0,0,0,0,0,0,0,0,0,0,0,0,0,0,0,0,0,0,0,0,0,0,0,0,0,0,0,-0.0249,-0.0248,0,-0.018,-0.0179,-0.0178,-0.0133,-0.0132,-0.0132,-0.0132,-0.0043,-0.0041,-0.0039,0,0,0,0,0,0,0,0,0,0,0,0,0,-0.0297,-0.0296,-0.0249,-0.0248,-0.0247,-0.018,-0.0179,-0.0178,-0.0133,-0.0132,-0.0132,-0.0132,-0.0044,-0.0041,-0.0039,0,0,0,0,0,0,0,0,0,0,0,0,0,-0.0256,-0.0296,-0.0249,-0.0217,-0.0214,-0.018,-0.0179,-0.0178,-0.0133,-0.0132,-0.0132,-0.0132,-0.0045,-0.0042,-0.0038,-0.0025,0,0,-0.0028,-0.0027,0,0,0,0,0,0,0,0,-0.0258,-0.0254,-0.0223,-0.0219,-0.0215,-0.0165,-0.0163,-0.0126,-0.0133,-0.0163,-0.0132,-0.0132,-0.0083,-0.0077,-0.0063,-0.0021,-0.0017,-0.0028,-0.0026,-0.0025,-0.0024,0,0,0,0,0,0,0,-0.0261,-0.0257,-0.0221,-0.0222,-0.0218,-0.0191,-0.0186,-0.0156,-0.0124,-0.016,-0.0157,-0.0151,-0.0081,-0.0067,-0.0061,-0.0016,-0.0028,-0.0025,-0.0023,-0.0022,0.0047,0.0047,0,0,0,0,0,0,-0.0274,-0.026,-0.0223,-0.0219,-0.0238,-0.0191,-0.0184,-0.0181,-0.0125,-0.0117,-0.0151,-0.0149,-0.0072,-0.0065,-0.0058,-0.0041,-0.0025,-0.0022,-0.002,0.0047,0.0047,0.0047,0,0,0,0,0,0,-0.0276,-0.0272,-0.0226,-0.0238,-0.023,-0.0191,-0.0187,-0.018,-0.0167,-0.0119,-0.011,-0.0146,-0.0072,-0.0062,-0.0033,-0.0037,-0.002,-0.0017,0.0047,0.0047,0.0047,-0.0005,0,0,0,0,0,0,-0.0277,-0.0273,-0.0277,-0.0239,-0.023,-0.0212,-0.0187,-0.0179,-0.0164,-0.0161,-0.0111,-0.0103,-0.0071,-0.0038,-0.003,-0.0032,-0.0015,0.0047,0.0047,0.0047,-0.0003,-0.0007,-0.001,0,0,0,0,0,-0.0279,-0.0288,-0.0277,-0.0273,-0.0236,-0.0213,-0.0206,-0.0176,-0.0165,-0.0162,-0.0127,-0.0104,-0.0033,-0.0035,-0.0026,-0.0027,0.0047,0.0047,0.0047,-0.0002,-0.0006,-0.001,0,0,0,0,0,0,-0.031,-0.0283,-0.0271,-0.027,-0.0247,-0.0206,-0.0202,-0.0182,-0.0152,-0.015,-0.0104,-0.0092,-0.0069,-0.0041,-0.0045,-0.0008,0.001,0.0012,-0.003,-0.0034,-0.0038,-0.0047,-0.0012,0,0,0,0,0,-0.032,-0.032,-0.0287,-0.0287,-0.0278,-0.0242,-0.023,-0.021,-0.0178,-0.0165,-0.013,-0.0094,-0.0062,-0.0044,-0.0013,0.0008,0.004,0.0013,0.001,0.0006,0.0005,0.005,0.005,0.0046,0.0046,0.0046,0,0,-0.0333,-0.0318,-0.0318,-0.0294,-0.0274,-0.0268,-0.0234,-0.0221,-0.0212,-0.016,-0.0141,-0.0106,-0.006,-0.0036,-0.0023,-0.0013,0.0024,0.0006,0.0003,0.0004,0.005,0.005,0.0051,0.0046,0.0046,0.0046,0,0,-0.0362,-0.0345,-0.0356,-0.034,-0.0316,-0.0291,-0.0291,-0.0254,-0.0234,-0.0211,-0.0172,-0.0139,-0.0093,-0.0058,-0.0035,-0.0039,0.0002,-0.0032,-0.0054,-0.0011,-0.001,-0.0009,0.0029,0.0034,-0.0032,-0.0032,-0.0032,0,-0.038,-0.0387,-0.0356,-0.036,-0.0352,-0.0307,-0.0315,-0.0287,-0.0244,-0.0228,-0.0214,-0.0139,-0.0103,-0.0065,-0.0066,-0.0047,-0.0018,-0.0043,-0.0016,-0.0014,-0.0012,0.0027,0.0033,-0.0034,-0.0034,-0.0034,-0.0034,0,-0.0415,-0.042,-0.0425,-0.0416,-0.0401,-0.0401,-0.036,-0.0342,-0.0313,-0.028,-0.0239,-0.0184,-0.0139,-0.0122,-0.0095,-0.0063,-0.0045,-0.0028,-0.0008,-0.0015,0.0027,0.0034,-0.0038,-0.0037,-0.0036,-0.0036,0,0,-0.0455,-0.0453,-0.0454,-0.0464,-0.0432,-0.0427,-0.0409,-0.0378,-0.0366,-0.0316,-0.0292,-0.0233,-0.0197,-0.0169,-0.0125,-0.0084,-0.0046,-0.0055,-0.0052,-0.0022,0.0048,0.0088,0.01,-0.0024,-0.0023,-0.0022,0.007,0,-0.0494,-0.0525,-0.0504,-0.0527,-0.0539,-0.0492,-0.0479,-0.0443,-0.04,-0.0363,-0.0293,-0.0256,-0.0215,-0.0194,-0.0147,-0.0068,-0.0029,-0.0073,0.0055,0.0058,0.0091,0.0109,0.0088,0.017,0.0077,0.0078,0.0079,0,-0.0534,-0.055,-0.0585,-0.0588,-0.0587,-0.0589,-0.0559,-0.0541,-0.047,-0.0435,-0.0376,-0.0316,-0.0242,-0.0213,-0.0081,-0.0111,-0.0041,0.002,0.0025,0.0086,0.0112,0.0165,0.0187,0.0092,0.0091,0.009,0.0089,0,-0.0586,-0.0605,-0.0639,-0.0639,-0.0631,-0.0633,-0.0622,-0.0566,-0.0552,-0.0478,-0.0455,-0.0355,-0.0304,-0.02,-0.0068,-0.0075,0.0079,0.0086,0.0187,0.0191,0.0211,0.0214,0.017,0.017,0.0169,0.0169,0.0169,0,-0.0636,-0.0661,-0.0669,-0.0688,-0.0722,-0.069,-0.0704,-0.0671,-0.062,-0.0601,-0.05,-0.0458,-0.0299,-0.0188,-0.0075,0.0088,0.0076,0.0191,0.0222,0.0192,0.0193,0.0154,0.0151,0.0173,0.0172,0.0171,0.0171,0,-0.0687,-0.0691,-0.0735,-0.0746,-0.0752,-0.0775,-0.0772,-0.0774,-0.0715,-0.0684,-0.0663,-0.053,-0.0375,-0.0208,-0.0026,0.0078,0.0227,0.0281,0.0236,0.026,0.0308,0.0301,0.0404,0.0406,0.0408,0.041,0.0411,0,-0.0716,-0.0745,-0.0788,-0.082,-0.0831,-0.0857,-0.0872,-0.083,-0.0825,-0.0726,-0.0714,-0.0558,-0.0436,-0.0143,0.007,0.0292,0.0279,0.039,0.0376,0.0315,0.0334,0.0324,0.0315,0.0379,0.038,0.0381,0.0381,0,-0.077,-0.0787,-0.0823,-0.0893,-0.0929,-0.0963,-0.0977,-0.0987,-0.0922,-0.0874,-0.078,-0.0671,-0.0372,-0.0118,0.0179,0.0301,0.0357,0.0414,0.0374,0.0322,0.0299,0.0315,0.0306,0.0388,0.0388,0.0387,0.0387,0.0386,-0.0804,-0.0848,-0.09,-0.0963,-0.101,-0.1055,-0.1081,-0.1069,-0.1048,-0.0949,-0.0839,-0.0643,-0.0383,0.0047,0.0251,0.0446,0.0441,0.0487,0.0481,0.0475,0.0455,0.0437,0.0548,0.0548,0.0549,0.0549,0.0549,0,-0.0843,-0.0895,-0.0965,-0.1037,-0.1097,-0.1104,-0.1137,-0.113,-0.1102,-0.097,-0.0844,-0.0545,-0.0239,0.0028,0.0347,0.0533,0.0507,0.0553,0.0483,0.0476,0.0469,0.0446,0.0538,0.0539,0.0539,0.0539,0,0,-0.0865,-0.0939,-0.0979,-0.1087,-0.114,-0.1195,-0.1214,-0.1176,-0.109,-0.0958,-0.0795,-0.0565,-0.0229,-0.0011,0.0228,0.0391,0.0376,0.0401,0.0394,0.0276,0.0267,0.0422,0.0378,0,0,0,0,0]}],[{"header":{"parameterUnit":"m.s-1","parameterCategory":2,"la1":30.2991,"la2":30.254,"lo1":-89.0895,"lo2":-89.0444,"dy":0.0017,"dx":0.0017,"nx":28,"ny":28,"refTime":"2024-10-08T21:00:00:Z","depth":"4","parameterNumber":2,"parameterNumberName":"U-component_of_CURRENTS"},"data":[0,0,0,0,0,0,0,0,0,0,0,0,0,0,0,0,0,0,0,0,0,0,0,0,0,0,0,0,0,0,0,0,0,0,0,0,0,0,0,0,0,0,0,0,0,0,0,0,0,0,0,0,0,0,0,0,0,0,-0.1566,-0.1566,0,-0.162,-0.1621,-0.1621,-0.1653,-0.1653,-0.1654,-0.1654,-0.1699,-0.17,-0.1701,0,0,0,0,0,0,0,0,0,0,0,0,0,-0.1487,-0.1489,-0.1566,-0.1566,-0.1567,-0.162,-0.1621,-0.1621,-0.1653,-0.1653,-0.1654,-0.1654,-0.1699,-0.17,-0.1701,0,0,0,0,0,0,0,0,0,0,0,0,0,-0.1528,-0.1489,-0.1566,-0.1591,-0.1593,-0.162,-0.1621,-0.1622,-0.1653,-0.1653,-0.1654,-0.1654,-0.1698,-0.17,-0.1701,-0.1702,0,0,-0.1706,-0.1706,0,0,0,0,0,0,0,0,-0.1526,-0.1531,-0.1586,-0.1589,-0.1592,-0.1632,-0.161,-0.1649,-0.1653,-0.1629,-0.1654,-0.1654,-0.1676,-0.168,-0.1687,-0.1704,-0.1706,-0.1706,-0.1707,-0.1707,-0.1708,0,0,0,0,0,0,0,-0.1523,-0.1529,-0.1586,-0.1587,-0.1591,-0.1599,-0.1605,-0.1617,-0.1648,-0.1631,-0.1634,-0.1642,-0.1678,-0.1685,-0.1688,-0.1707,-0.1706,-0.1707,-0.1708,-0.1708,-0.1799,-0.18,0,0,0,0,0,0,-0.1519,-0.1526,-0.1584,-0.1588,-0.1561,-0.16,-0.1607,-0.1617,-0.1648,-0.1654,-0.1642,-0.1643,-0.1683,-0.1687,-0.169,-0.1758,-0.1707,-0.1709,-0.1709,-0.1797,-0.1799,-0.1801,0,0,0,0,0,0,-0.1517,-0.1524,-0.1582,-0.1559,-0.1567,-0.1601,-0.1613,-0.1618,-0.1652,-0.1657,-0.1662,-0.1672,-0.1683,-0.1688,-0.1727,-0.1758,-0.1709,-0.1711,-0.1796,-0.1798,-0.18,-0.1853,0,0,0,0,0,0,-0.1515,-0.1523,-0.1542,-0.1559,-0.1568,-0.1616,-0.1613,-0.1619,-0.1655,-0.1659,-0.1685,-0.1688,-0.1684,-0.1725,-0.1729,-0.1759,-0.1712,-0.1794,-0.1797,-0.1799,-0.1849,-0.1857,-0.1863,0,0,0,0,0,-0.1512,-0.1532,-0.1542,-0.155,-0.1589,-0.1617,-0.1623,-0.1647,-0.1657,-0.1677,-0.1697,-0.1688,-0.1746,-0.1728,-0.1731,-0.1763,-0.1792,-0.1796,-0.1799,-0.1846,-0.1855,-0.1863,0,0,0,0,0,0,-0.151,-0.1538,-0.1549,-0.1578,-0.1605,-0.1623,-0.1648,-0.1663,-0.1695,-0.1705,-0.1707,-0.1712,-0.1758,-0.1755,-0.1735,-0.1798,-0.1768,-0.1772,-0.1803,-0.1811,-0.1818,-0.1812,-0.1713,0,0,0,0,0,-0.1517,-0.154,-0.1566,-0.1592,-0.1608,-0.1634,-0.1653,-0.167,-0.1695,-0.1711,-0.173,-0.1751,-0.1771,-0.1787,-0.1803,-0.1838,-0.1822,-0.1861,-0.1868,-0.1874,-0.1873,-0.1873,-0.1879,-0.1812,-0.1812,-0.1812,0,0,-0.1524,-0.1543,-0.1558,-0.1594,-0.1617,-0.1647,-0.1647,-0.1686,-0.1717,-0.171,-0.1765,-0.1778,-0.1786,-0.1826,-0.1846,-0.183,-0.1888,-0.1879,-0.1884,-0.1879,-0.1877,-0.1884,-0.1889,-0.1815,-0.1814,-0.1814,0,0,-0.154,-0.1568,-0.1591,-0.1617,-0.1658,-0.1675,-0.1692,-0.1729,-0.1755,-0.1803,-0.1806,-0.1837,-0.1875,-0.1884,-0.1892,-0.1947,-0.1924,-0.196,-0.1991,-0.1992,-0.1997,-0.2002,-0.1996,-0.1999,-0.1964,-0.1964,-0.1964,0,-0.155,-0.1579,-0.1603,-0.1633,-0.166,-0.169,-0.1723,-0.1754,-0.1802,-0.1823,-0.1831,-0.1888,-0.1899,-0.1935,-0.1958,-0.1962,-0.1956,-0.1957,-0.2,-0.2004,-0.2007,-0.2,-0.2003,-0.1967,-0.1966,-0.1966,-0.1966,0,-0.1573,-0.1611,-0.1629,-0.1676,-0.1709,-0.1744,-0.1785,-0.1827,-0.1862,-0.1885,-0.194,-0.1957,-0.1985,-0.2001,-0.1998,-0.2034,-0.2021,-0.2007,-0.1974,-0.2017,-0.2007,-0.2009,-0.1971,-0.197,-0.1969,-0.1968,0,0,-0.1553,-0.163,-0.164,-0.1671,-0.1735,-0.1761,-0.1822,-0.1873,-0.191,-0.1959,-0.2,-0.2043,-0.205,-0.2059,-0.2064,-0.2072,-0.2096,-0.2056,-0.2055,-0.2043,-0.2097,-0.1964,-0.1953,-0.209,-0.2091,-0.2091,-0.2083,0,-0.1565,-0.1624,-0.1663,-0.1726,-0.1758,-0.1812,-0.1862,-0.1915,-0.196,-0.2008,-0.2034,-0.2074,-0.2073,-0.2092,-0.2102,-0.2098,-0.2103,-0.2099,-0.2064,-0.2063,-0.1933,-0.1951,-0.2093,-0.2084,-0.2084,-0.2085,-0.2085,0,-0.1567,-0.1607,-0.167,-0.1749,-0.177,-0.1817,-0.1896,-0.1944,-0.2013,-0.2048,-0.209,-0.2108,-0.2142,-0.2129,-0.214,-0.2139,-0.2124,-0.2115,-0.2114,-0.1968,-0.1932,-0.2032,-0.2088,-0.2088,-0.2087,-0.2087,-0.2087,0,-0.1521,-0.1609,-0.1659,-0.1688,-0.1782,-0.1827,-0.1881,-0.1958,-0.1998,-0.2072,-0.2102,-0.2142,-0.2164,-0.2159,-0.2148,-0.2149,-0.2142,-0.2135,-0.2001,-0.1992,-0.2091,-0.2087,-0.2132,-0.2132,-0.2132,-0.2132,-0.2132,0,-0.1497,-0.154,-0.1648,-0.1673,-0.1734,-0.1812,-0.1878,-0.1937,-0.2015,-0.2046,-0.2116,-0.213,-0.2173,-0.2174,-0.2157,-0.2075,-0.2147,-0.2,-0.1976,-0.2116,-0.2114,-0.2093,-0.2088,-0.2132,-0.2132,-0.2132,-0.2132,0,-0.143,-0.1504,-0.1564,-0.1675,-0.1714,-0.1757,-0.1869,-0.1903,-0.1995,-0.2037,-0.2061,-0.213,-0.2125,-0.2144,-0.2135,-0.2066,-0.2016,-0.197,-0.212,-0.2106,-0.1866,-0.1865,-0.1815,-0.181,-0.1806,-0.1802,-0.18,0,-0.1396,-0.1422,-0.1546,-0.158,-0.1635,-0.1715,-0.176,-0.1874,-0.1904,-0.2009,-0.2006,-0.2052,-0.2076,-0.1955,-0.1993,-0.1943,-0.192,-0.1883,-0.1871,-0.1849,-0.1832,-0.1838,-0.1842,-0.1793,-0.1792,-0.1791,-0.179,0,-0.132,-0.1379,-0.1427,-0.1496,-0.1557,-0.1613,-0.1688,-0.1698,-0.181,-0.1916,-0.1896,-0.1884,-0.1875,-0.1858,-0.1832,-0.1797,-0.19,-0.1839,-0.1848,-0.1837,-0.1822,-0.1811,-0.182,-0.1775,-0.1777,-0.1779,-0.178,0,-0.1261,-0.1275,-0.1343,-0.1387,-0.1457,-0.1474,-0.1538,-0.1569,-0.1616,-0.1739,-0.1725,-0.1777,-0.1853,-0.1781,-0.1755,-0.1711,-0.1685,-0.1625,-0.1644,-0.166,-0.1611,-0.1571,-0.1417,0,0,0,0,0,-0.1189,-0.1188,-0.1223,-0.1266,-0.1327,-0.1365,-0.1464,-0.1531,-0.1644,-0.1585,-0.1652,-0.1637,-0.1601,-0.163,-0.155,-0.1679,-0.1689,-0.1577,-0.163,-0.1696,-0.1713,-0.1668,0,0,0,0,0,0,-0.1141,-0.117,-0.1178,-0.1143,-0.1147,-0.12,-0.1256,-0.1343,-0.1324,-0.1446,-0.1435,-0.1528,-0.1518,-0.1617,-0.1512,-0.1519,-0.1516,-0.1621,-0.1616,-0.1687,-0.1702,-0.1715,-0.1675,0,0,0,0,0]},{"header":{"parameterUnit":"m.s-1","parameterCategory":2,"la1":30.2991,"la2":30.254,"lo1":-89.0895,"lo2":-89.0444,"dy":0.0017,"dx":0.0017,"nx":28,"ny":28,"refTime":"2024-10-08T21:00:00:Z","depth":"4","parameterNumber":3,"parameterNumberName":"V-component_of_CURRENTS"},"data":[0,0,0,0,0,0,0,0,0,0,0,0,0,0,0,0,0,0,0,0,0,0,0,0,0,0,0,0,0,0,0,0,0,0,0,0,0,0,0,0,0,0,0,0,0,0,0,0,0,0,0,0,0,0,0,0,0,0,-0.0114,-0.0113,0,-0.007,-0.007,-0.0069,-0.0039,-0.0039,-0.0039,-0.0039,0.0028,0.003,0.0031,0,0,0,0,0,0,0,0,0,0,0,0,0,-0.0136,-0.0136,-0.0114,-0.0113,-0.0113,-0.007,-0.007,-0.0069,-0.0039,-0.0039,-0.0039,-0.0039,0.0028,0.003,0.0031,0,0,0,0,0,0,0,0,0,0,0,0,0,-0.0112,-0.0136,-0.0114,-0.0093,-0.0091,-0.0071,-0.007,-0.0069,-0.0039,-0.0039,-0.0039,-0.0038,0.0027,0.0029,0.0032,0.0042,0,0,0.0039,0.004,0,0,0,0,0,0,0,0,-0.0113,-0.0111,-0.0097,-0.0095,-0.0092,-0.0061,-0.0053,-0.0031,-0.0039,-0.0058,-0.0039,-0.0038,-0.0,0.0005,0.0013,0.0045,0.0048,0.0039,0.0041,0.0042,0.0043,0,0,0,0,0,0,0,-0.0115,-0.0113,-0.0096,-0.0096,-0.0094,-0.0074,-0.0071,-0.0049,-0.003,-0.0056,-0.0054,-0.0051,0.0001,0.0011,0.0015,0.0049,0.0039,0.0042,0.0043,0.0044,0.0097,0.0097,0,0,0,0,0,0,-0.0124,-0.0114,-0.0097,-0.0094,-0.0103,-0.0075,-0.0071,-0.007,-0.003,-0.0025,-0.0051,-0.005,0.0006,0.0012,0.0017,0.0031,0.0042,0.0044,0.0046,0.0097,0.0097,0.0097,0,0,0,0,0,0,-0.0125,-0.0123,-0.0099,-0.0104,-0.01,-0.0075,-0.0074,-0.007,-0.0062,-0.0027,-0.002,-0.0049,0.0007,0.0014,0.0035,0.0034,0.0045,0.0048,0.0097,0.0097,0.0097,0.0058,0,0,0,0,0,0,-0.0126,-0.0124,-0.0129,-0.0105,-0.01,-0.0092,-0.0075,-0.0069,-0.0061,-0.0059,-0.0023,-0.0017,0.0007,0.0031,0.0038,0.0037,0.005,0.0097,0.0097,0.0097,0.006,0.0057,0.0055,0,0,0,0,0,-0.0127,-0.0135,-0.013,-0.0128,-0.0107,-0.0093,-0.0088,-0.0069,-0.0061,-0.0061,-0.0036,-0.0018,0.0035,0.0033,0.0041,0.0041,0.0097,0.0097,0.0097,0.0061,0.0058,0.0055,0,0,0,0,0,0,-0.0147,-0.0132,-0.0126,-0.0129,-0.0115,-0.0088,-0.0087,-0.0074,-0.0054,-0.0052,-0.0018,-0.0009,0.0008,0.0029,0.0026,0.0056,0.0069,0.007,0.0039,0.0036,0.0034,0.0024,0.0052,0,0,0,0,0,-0.0155,-0.0159,-0.0138,-0.0142,-0.0137,-0.0114,-0.0106,-0.0094,-0.0072,-0.0063,-0.0038,-0.0011,0.0013,0.0028,0.005,0.0067,0.0094,0.0072,0.0069,0.0067,0.0065,0.0105,0.0106,0.0096,0.0096,0.0096,0,0,-0.0164,-0.0157,-0.0159,-0.0147,-0.0135,-0.0133,-0.0109,-0.0103,-0.0098,-0.0059,-0.0047,-0.002,0.0015,0.0033,0.0043,0.0051,0.0083,0.0067,0.0065,0.0063,0.0105,0.0106,0.0107,0.0096,0.0096,0.0096,0,0,-0.0187,-0.0179,-0.019,-0.018,-0.0167,-0.0151,-0.0152,-0.0128,-0.0115,-0.01,-0.007,-0.0044,-0.0012,0.0018,0.0036,0.0033,0.0066,0.0038,0.0021,0.0061,0.0062,0.0063,0.0094,0.0099,0.004,0.0039,0.0039,0,-0.02,-0.0209,-0.019,-0.0196,-0.0193,-0.0163,-0.0171,-0.0152,-0.0124,-0.0112,-0.0103,-0.0046,-0.0018,0.0014,0.0013,0.0028,0.0052,0.0029,0.0057,0.0059,0.0061,0.0093,0.0098,0.0038,0.0038,0.0038,0.0038,0,-0.0225,-0.0234,-0.024,-0.0238,-0.023,-0.0233,-0.0206,-0.0195,-0.0177,-0.0153,-0.0122,-0.0079,-0.0045,-0.003,-0.001,0.0019,0.0032,0.0047,0.0064,0.006,0.0093,0.01,0.0035,0.0036,0.0036,0.0037,0,0,-0.0252,-0.0258,-0.0261,-0.0272,-0.0254,-0.0254,-0.0243,-0.0223,-0.0217,-0.018,-0.0164,-0.0116,-0.0089,-0.0066,-0.0031,0.0005,0.004,0.0027,0.003,0.0055,0.0122,0.0119,0.0126,0.006,0.0061,0.0062,0.0138,0,-0.0279,-0.0308,-0.0298,-0.0322,-0.0333,-0.0304,-0.0298,-0.0274,-0.0245,-0.022,-0.0162,-0.0136,-0.0102,-0.0087,-0.0045,0.0021,0.0055,0.0018,0.0124,0.0127,0.0123,0.0133,0.0065,0.0142,0.0144,0.0145,0.0146,0,-0.0306,-0.0324,-0.0356,-0.037,-0.0372,-0.0379,-0.0365,-0.0355,-0.0304,-0.0279,-0.0232,-0.0186,-0.0123,-0.01,0.0014,-0.0012,0.0046,0.0098,0.0102,0.0117,0.0136,0.0149,0.0158,0.0157,0.0156,0.0155,0.0155,0,-0.0338,-0.0364,-0.0396,-0.04,-0.0405,-0.0415,-0.0413,-0.0377,-0.037,-0.0316,-0.0301,-0.0216,-0.0177,-0.0086,0.0022,0.0018,0.0146,0.0157,0.021,0.0211,0.0207,0.0205,0.023,0.0229,0.0229,0.0229,0.0229,0,-0.0367,-0.0394,-0.0419,-0.0437,-0.0475,-0.0459,-0.0481,-0.0461,-0.0429,-0.0418,-0.0339,-0.0307,-0.0173,-0.0081,0.0015,0.0134,0.0145,0.0209,0.0232,0.0189,0.0183,0.0212,0.0209,0.0232,0.0231,0.0231,0.023,0,-0.0393,-0.0409,-0.0453,-0.0481,-0.0494,-0.0521,-0.054,-0.0546,-0.0509,-0.0489,-0.0475,-0.0371,-0.0246,-0.0108,0.0046,0.0119,0.0236,0.0273,0.0213,0.0232,0.0275,0.0269,0.0339,0.034,0.034,0.0341,0.0341,0,-0.0406,-0.0433,-0.0494,-0.0529,-0.0549,-0.0586,-0.0609,-0.0591,-0.059,-0.0525,-0.0514,-0.0398,-0.0312,-0.0092,0.0047,0.0237,0.0258,0.0312,0.0296,0.0272,0.0288,0.0281,0.0274,0.0342,0.0342,0.0342,0.0342,0,-0.0431,-0.0459,-0.0496,-0.0573,-0.0619,-0.0661,-0.0687,-0.0692,-0.0655,-0.0626,-0.0533,-0.0409,-0.0268,-0.0095,0.0055,0.0188,0.0276,0.0317,0.0317,0.0302,0.0276,0.0289,0.0282,0.0344,0.0344,0.0344,0.0344,0,-0.0447,-0.0485,-0.0542,-0.0605,-0.0668,-0.0709,-0.0724,-0.0708,-0.0696,-0.0612,-0.0585,-0.0419,-0.0321,-0.012,0.0017,0.0153,0.0181,0.0211,0.0217,0.0217,0.0158,0.0105,0.0143,0,0,0,0,0,-0.0456,-0.05,-0.0568,-0.0635,-0.0698,-0.073,-0.0759,-0.0758,-0.0725,-0.0664,-0.0618,-0.0479,-0.0257,-0.0163,-0.0028,0.0014,0.0192,0.0174,0.0226,0.0353,0.0351,0.0304,0,0,0,0,0,0,-0.0464,-0.0528,-0.0565,-0.0641,-0.0691,-0.075,-0.0771,-0.0753,-0.071,-0.0657,-0.0539,-0.0457,-0.0244,-0.0329,-0.0027,0.0014,0.0062,0.0285,0.0287,0.0354,0.0353,0.0351,0.0301,0,0,0,0,0]}]]